Change the Weather History Date:

Sunday, May 4, 2014

  Actual Average Record
Temperature  
Mean Temperature 49 °F -  
Max Temperature 57 °F 66 °F 90 °F (1952)
Min Temperature 41 °F 42 °F -99 °F (1998)
Degree Days  
Heating Degree Days 16    
Moisture  
Dew Point 36 °F    
Average Humidity 65    
Maximum Humidity 93    
Minimum Humidity 44    
Precipitation  
Precipitation 0.07 in - - ()
Sea Level Pressure  
Sea Level Pressure 30.00 in    
Wind  
Wind Speed 11 mph (ENE)    
Max Wind Speed 21 mph    
Max Gust Speed 25 mph    
Visibility 10 miles    
Events Rain    
Averages and records for this station are not official NWS values.
T = Trace of Precipitation, MM = Missing Value Source: NWS Daily Summary

Daily Weather History Graph

Daily Weather History Graph

Search for Another Location

Airport or City:

Trip Planner

Search our weather history database for the weather conditions in past years. The results will help you decide how hot, cold, wet, or windy it might be!

Date:

Astronomy

May. 04, 2014 Rise Set
Actual Time 6:05 AM CDT 8:18 PM CDT
Civil Twilight 5:34 AM CDT 8:50 PM CDT
Nautical Twilight 4:55 AM CDT 9:28 PM CDT
Astronomical Twilight 4:13 AM CDT 10:11 PM CDT
Moon 10:29 AM CDT (5/4) 12:25 AM CDT (5/4)
Length of Visible Light 15h 16m
Length of Day
14h 13m
Waxing Crescent, 28% of the Moon is Illuminated
May 4
Waxing Crescent
May 6
First Quarter
May 14
Full
May 21
Last Quarter
May 28
New

Hourly Weather History & Observations

Time (CDT) Temp. Windchill Dew Point Humidity Pressure Visibility Wind Dir Wind Speed Gust Speed Precip Events Conditions
12:15 AM 46.4 °F - 39.2 °F 76% 29.96 in 10.0 mi Calm Calm - N/A   Clear
12:35 AM 46.4 °F 44.3 °F 39.2 °F 76% 29.97 in 10.0 mi NNE 4.6 mph - N/A   Clear
12:55 AM 44.6 °F 40.2 °F 37.4 °F 76% 29.98 in 10.0 mi NNE 8.1 mph - N/A   Clear
1:15 AM 44.6 °F 41.4 °F 37.4 °F 76% 29.97 in 10.0 mi NNE 5.8 mph - N/A   Clear
1:35 AM 42.8 °F 38.0 °F 37.4 °F 81% 29.98 in 10.0 mi NNE 8.1 mph - N/A   Clear
1:55 AM 44.6 °F 40.2 °F 37.4 °F 76% 30.00 in 10.0 mi North 8.1 mph - N/A   Scattered Clouds
2:15 AM 46.4 °F 41.9 °F 39.2 °F 76% 29.99 in 10.0 mi North 9.2 mph - N/A   Overcast
2:35 AM 44.6 °F 40.7 °F 39.2 °F 81% 29.99 in 10.0 mi North 6.9 mph - N/A   Overcast
2:55 AM 46.4 °F 41.9 °F 39.2 °F 76% 30.00 in 10.0 mi North 9.2 mph - N/A   Scattered Clouds
3:15 AM 46.4 °F 41.1 °F 37.4 °F 71% 30.00 in 10.0 mi North 11.5 mph - N/A   Clear
3:35 AM 46.4 °F 40.4 °F 37.4 °F 71% 30.00 in 10.0 mi North 13.8 mph 20.7 mph N/A   Clear
3:55 AM 44.6 °F 38.8 °F 37.4 °F 76% 30.00 in 10.0 mi North 11.5 mph - N/A   Clear
4:15 AM 44.6 °F 38.4 °F 37.4 °F 76% 30.01 in 10.0 mi North 12.7 mph - N/A   Clear
4:35 AM 44.6 °F 38.1 °F 35.6 °F 71% 30.01 in 10.0 mi NNE 13.8 mph - N/A   Partly Cloudy
4:55 AM 44.6 °F 38.4 °F 35.6 °F 71% 30.03 in 10.0 mi North 12.7 mph - N/A   Clear
5:15 AM 42.8 °F 36.2 °F 35.6 °F 76% 30.03 in 10.0 mi NNE 12.7 mph - N/A   Partly Cloudy
5:35 AM 42.8 °F 37.0 °F 35.6 °F 76% 30.04 in 10.0 mi NNE 10.4 mph - N/A   Mostly Cloudy
5:55 AM 42.8 °F 38.0 °F 35.6 °F 76% 30.03 in 10.0 mi NNE 8.1 mph - N/A   Overcast
6:15 AM 42.8 °F 36.6 °F 35.6 °F 76% 30.03 in 10.0 mi NE 11.5 mph - N/A   Overcast
6:35 AM 42.8 °F 38.0 °F 35.6 °F 76% 30.05 in 9.0 mi NNE 8.1 mph - N/A Rain Light Rain
6:55 AM 42.8 °F 37.5 °F 37.4 °F 81% 30.06 in 5.0 mi NNE 9.2 mph - 0.02 in Rain Rain
7:15 AM 41.0 °F 35.8 °F 37.4 °F 87% 30.07 in 7.0 mi NNE 8.1 mph - N/A Rain Light Rain
7:35 AM 41.0 °F 35.2 °F 37.4 °F 87% 30.08 in 4.0 mi NNE 9.2 mph - N/A Rain Light Rain
7:55 AM 41.0 °F 35.2 °F 37.4 °F 87% 30.07 in 10.0 mi NNE 9.2 mph - 0.05 in   Mostly Cloudy
8:15 AM 41.0 °F 34.3 °F 37.4 °F 87% 30.09 in 10.0 mi NNE 11.5 mph - N/A   Mostly Cloudy
8:35 AM 41.0 °F 33.5 °F 39.2 °F 93% 30.08 in 10.0 mi NNE 13.8 mph - N/A   Scattered Clouds
8:55 AM 41.0 °F 32.5 °F 39.2 °F 93% 30.06 in 10.0 mi NE 17.3 mph - N/A   Partly Cloudy
9:15 AM 42.8 °F 34.8 °F 37.4 °F 81% 30.06 in 10.0 mi NE 17.3 mph 24.2 mph N/A   Clear
9:35 AM 42.8 °F 34.0 °F 37.4 °F 81% 30.06 in 10.0 mi ENE 20.7 mph - N/A   Clear
9:55 AM 44.6 °F 36.4 °F 37.4 °F 76% 30.06 in 10.0 mi ENE 20.7 mph - N/A   Clear
10:15 AM 44.6 °F 36.4 °F 35.6 °F 71% 30.06 in 10.0 mi ENE 20.7 mph - N/A   Mostly Cloudy
10:35 AM 44.6 °F 37.4 °F 35.6 °F 71% 30.06 in 10.0 mi ENE 16.1 mph 23.0 mph N/A   Overcast
10:55 AM 44.6 °F 37.8 °F 37.4 °F 76% 30.06 in 10.0 mi ENE 15.0 mph 21.9 mph N/A   Scattered Clouds
11:15 AM 44.6 °F 37.4 °F 37.4 °F 76% 30.07 in 10.0 mi East 16.1 mph - N/A   Scattered Clouds
11:35 AM 44.6 °F 37.8 °F 37.4 °F 76% 30.08 in 10.0 mi East 15.0 mph - N/A   Overcast
11:55 AM 46.4 °F 40.4 °F 37.4 °F 71% 30.08 in 10.0 mi ENE 13.8 mph - N/A   Overcast
12:15 PM 46.4 °F 40.4 °F 37.4 °F 71% 30.07 in 10.0 mi East 13.8 mph - N/A   Overcast
12:35 PM 46.4 °F 40.4 °F 37.4 °F 71% 30.06 in 10.0 mi East 13.8 mph - N/A   Overcast
12:55 PM 48.2 °F - 37.4 °F 66% 30.05 in 10.0 mi ENE 15.0 mph - N/A   Scattered Clouds
1:15 PM 48.2 °F - 37.4 °F 66% 30.04 in 10.0 mi ENE 13.8 mph - N/A   Clear
1:35 PM 50.0 °F - 37.4 °F 62% 30.03 in 10.0 mi East 16.1 mph - N/A   Clear
1:55 PM 50.0 °F - 35.6 °F 58% 30.03 in 10.0 mi East 17.3 mph - N/A   Clear
2:15 PM 51.8 °F - 35.6 °F 54% 30.02 in 10.0 mi East 17.3 mph - N/A   Clear
2:35 PM 51.8 °F - 35.6 °F 54% 30.02 in 10.0 mi East 15.0 mph 21.9 mph N/A   Clear
2:55 PM 53.6 °F - 33.8 °F 47% 30.01 in 10.0 mi East 15.0 mph 21.9 mph N/A   Clear
3:15 PM 53.6 °F - 33.8 °F 47% 30.00 in 10.0 mi ENE 17.3 mph - N/A   Clear
3:35 PM 53.6 °F - 33.8 °F 47% 29.99 in 10.0 mi East 17.3 mph 24.2 mph N/A   Clear
3:55 PM 55.4 °F - 35.6 °F 47% 29.97 in 10.0 mi East 15.0 mph 21.9 mph N/A   Clear
4:15 PM 55.4 °F - 33.8 °F 44% 29.97 in 10.0 mi East 18.4 mph - N/A   Clear
4:35 PM 57.2 °F - 35.6 °F 44% 29.96 in 10.0 mi East 17.3 mph 23.0 mph N/A   Clear
4:55 PM 57.2 °F - 35.6 °F 44% 29.96 in 10.0 mi East 17.3 mph 25.3 mph N/A   Clear
5:15 PM 57.2 °F - 35.6 °F 44% 29.95 in 10.0 mi East 18.4 mph 25.3 mph N/A   Clear
5:35 PM 57.2 °F - 35.6 °F 44% 29.96 in 10.0 mi East 15.0 mph 20.7 mph N/A   Clear
5:55 PM 57.2 °F - 35.6 °F 44% 29.96 in 10.0 mi ESE 15.0 mph 20.7 mph N/A   Clear
6:15 PM 57.2 °F - 35.6 °F 44% 29.95 in 10.0 mi ESE 16.1 mph - N/A   Clear
6:35 PM 55.4 °F - 35.6 °F 47% 29.95 in 10.0 mi ESE 15.0 mph - N/A   Clear
6:55 PM 55.4 °F - 35.6 °F 47% 29.91 in 10.0 mi East 19.6 mph - N/A   Clear
7:15 PM 55.4 °F - 33.8 °F 44% 29.91 in 10.0 mi East 17.3 mph 24.2 mph N/A   Clear
7:35 PM 53.6 °F - 33.8 °F 47% 29.94 in 10.0 mi East 12.7 mph - N/A   Clear
7:55 PM 53.6 °F - 33.8 °F 47% 29.94 in 10.0 mi ESE 12.7 mph - N/A   Clear
8:15 PM 53.6 °F - 35.6 °F 51% 29.93 in 10.0 mi East 15.0 mph - N/A   Clear
8:35 PM 51.8 °F - 33.8 °F 50% 29.96 in 10.0 mi East 9.2 mph 15.0 mph N/A   Clear
8:55 PM 51.8 °F - 33.8 °F 50% 29.97 in 10.0 mi Variable 6.9 mph 17.3 mph N/A   Clear
9:15 PM 51.8 °F - 35.6 °F 54% 29.95 in 10.0 mi East 9.2 mph 17.3 mph N/A   Clear
9:35 PM 50.0 °F - 35.6 °F 58% 29.91 in 10.0 mi East 16.1 mph - N/A   Clear
9:55 PM 50.0 °F - 35.6 °F 58% 29.91 in 10.0 mi East 15.0 mph - N/A   Clear
10:15 PM 50.0 °F - 35.6 °F 58% 29.93 in 10.0 mi East 11.5 mph - N/A   Clear
10:35 PM 50.0 °F - 33.8 °F 54% 29.92 in 10.0 mi East 13.8 mph 20.7 mph N/A   Clear
10:55 PM 50.0 °F - 35.6 °F 58% 29.92 in 10.0 mi East 13.8 mph - N/A   Clear
11:15 PM 48.2 °F - 35.6 °F 62% 29.92 in 10.0 mi East 12.7 mph - N/A   Clear
11:35 PM 48.2 °F - 35.6 °F 62% 29.91 in 10.0 mi East 13.8 mph - N/A   Clear
11:55 PM 48.2 °F - 35.6 °F 62% 29.91 in 10.0 mi East 13.8 mph - N/A   Clear